Voltar ao catálogo

SL-8 DEB

AtivoLEO
NORAD 21251·DEBRIS·🇷🇺 Russia

Lançado Feb 12, 1991 de Plesetsk Cosmodrome

Loading…

Próximas Passagens (próximas 24 horas)

TLE

AtualizadoSource: Space-Track

Época: Sep 14, 2026, 14:43 UTC

1 21251U 91009BJ  26257.61372885  .00000061  00000-0  57240-3 0  9990
2 21251  73.9517 225.4563 0147798  56.1084  61.6793 12.36348331602365

Acompanhe SL-8 DEB em tempo real com AllMySat

Download on the App Store